CZ-4 DEB, 28073

Orbit data source: Space-Track

CZ-4 DEB, 28073 is space debris in SSO originally from a launch on Thu, 14 Oct 1999 UTC launched from the Taiyaun Space Center, China (TSC). Debris objects in space refer to the collection of defunct objects orbiting the Earth. Examples of debris include non-operational satellites, rocket bodies, and fragments generated from explosions, collisions, or faulty payload assembly.

Loading next visibility...
Identifier
28073, 1999-057ND
Orbit
SSO
Country
Flag of CNCN / PRC
Related business
Manufacturer
Unknown
Mission
Spacecraft
Bus & Motor
Unknown
Mass
Unknown
Launch date (UTC)
1999-10-14 (26 years ago)
Launch vehicle
Unknown
Launch site
Taiyaun Space Center, China (TSC)
Object type
Payload
Rocket body
Debris
Shape & HBR
Unknown shape, 0.1 m
Radar Cross Section
Small (<0.1 m²)

Expand to show TLE details & history
Last TLE update: 1 day ago

TLE from 1 day ago
0 CZ-4 DEB
1 28073U 99057ND  25296.62976250  .00000736  00000-0  21939-3 0  9994
2 28073  98.6320 342.4952 0080267 255.8702 258.5939 14.44346060196921
Epoch: 2025-10-23T15:06Z
TLE epoch observation values (Epoch: 2025-10-23T15:06:51.479Z)
Latitude
26.14853°
Longitude
-92.25425°
Altitude
759.126 km
Speed
7.471 km/s
True Right ascension
11h 06m 59s
True Declination
26° 00' 46"
Sunlit
Object was in daylight at epoch
Visualization orbit readout
Latitude
Unknown
Longitude
Unknown
Altitude
Unknown
Speed
Unknown
Apparent Right ascension
Unknown
Apparent Declination
Unknown
Sunlit
N/A
Visualization observer readout
Local Sidereal Time
10:34:28
Azimuth
Unknown
Elevation
Unknown
Doppler factor
Unknown
Orbital elements
Apogee altitude
798.443 km
Perigee altitude
684.152 km
Semi-major axis
7,119.434 km
Eccentricity
0.00803
Inclination
98.632°
RAAN
342.4952°
Arg. of periapsis
255.8702°
True anomaly
257.6941°
Mean anomaly
258.5939°
Eccentric anomaly
258.14382°
Mean motion
3.61306 °/min
Orbital period
99.64 mins
BSTAR
0.00021939
Loading maneuver chart data...
Computing Atmospheric mass density...

Documentation

Showing up to 5 results
|